Flag for South Africa Weather past 2 weeks in Bloemfontein, South Africa

Now
39 °F

Scattered clouds.


Feels Like: 39 °F
Forecast: 26 / 52 °F
Wind: 2 mph from North

Location: Bloemfontein Airport

Current Time: Jul 29, 2015 at 7:28:00 AM

Latest Report: Jul 29, 2015 at 7:00 AM


Visibility: N/A

Pressure: 30.09 "Hg (25.33 "Hg at 1397m altitude)

Humidity: 61%

Dew point: 27 °F

Location of BloemfonteinLocation

Historic Weather in Bloemfontein — Graph

°F

Bloemfontein temperature yesterday

Maximum temperature yesterday: 64 °F (at 2:00 PM)
Minimum temperature yesterday: 28 °F (at 7:00 AM)
Average temperature yesterday: 45 °F

Past Weeks' High & Low Weather Summary

 TemperatureHumidityPressure
High73 °F (Jul 20, 3:00 PM)100% (Jul 24, 1:01 AM)30.42 "Hg (Jul 24, 1:01 AM)
Low27 °F (Jul 18, 4:00 AM)13% (Jul 19, 2:00 PM)29.83 "Hg (Jul 16, 4:00 PM)
Average48 °F59%30.21 "Hg
* Reported Jul 14 6:00 AM — Jul 29 6:00 AM, Bloemfontein, Weather by CustomWeather, © 2015

Note: Actual official high and low records may vary slightly from our data, if they occured in-between our weather recording intervals... More about our weather records

Advertising

Bloemfontein weather history for previous 24 hours

 ConditionsComfort  
Time TempWeatherWind HumidityBarometerVisibility
6:00 AM
Wed, Jul 29
37 °FSunny.1 mph60%30.07 "Hg10 mi
5:00 AM34 °FClear.No wind75%30.09 "Hg10 mi
4:00 AM34 °FChilly.2 mph70%30.07 "HgN/A
3:00 AM36 °FChilly.2 mph65%30.09 "HgN/A
2:00 AM34 °FChilly.No wind81%30.15 "HgN/A
1:00 AM36 °FChilly.2 mph65%30.12 "HgN/A
12:00 AM36 °FChilly.1 mph70%30.15 "HgN/A
11:00 PM
Tue, Jul 28
37 °FChilly.1 mph70%30.18 "HgN/A
10:00 PM43 °FQuite cool.2 mph49%30.15 "HgN/A
9:00 PM45 °FQuite cool.2 mph42%30.15 "HgN/A
8:00 PM45 °FClear.No wind49%30.18 "Hg10 mi
7:00 PM48 °FClear.2 mph37%30.15 "Hg10 mi
6:00 PM59 °FClear.3 mph20%30.12 "Hg10 mi
5:00 PM64 °FClear.7 mph14%30.15 "Hg10 mi
4:00 PM64 °FPassing clouds.9 mph15%30.12 "HgN/A
3:00 PM64 °FSunny.13 mph15%30.15 "Hg10 mi
2:00 PM64 °FSunny.9 mph14%30.18 "Hg10 mi
1:00 PM63 °FPassing clouds.9 mph20%30.21 "HgN/A
12:00 PM61 °FSunny.12 mph23%30.24 "Hg10 mi
11:00 AM57 °FSunny.12 mph33%30.24 "Hg10 mi
10:00 AM50 °FPassing clouds.5 mph47%30.27 "HgN/A
9:00 AM41 °FSunny.2 mph66%30.27 "Hg10 mi
8:00 AM32 °FSunny.2 mph87%30.24 "Hg10 mi
7:00 AM28 °FSunny.1 mph86%30.24 "Hg10 mi
Weather by CustomWeather, © 2015

See weather overviewHow to use our weather pages